| time (UTC) | temp F | wind direction | speed MPH | gust MPH | rain 1hr in | rain 24hr in | rain mn in | humidity % | barometer mb |
| 20260506123041 | 43 | 0.0 | 0.0 | 0.00 | 0.17 | 0.00 | 90 | 1024.3 | |
| 20260506121537 | 43 | 0.0 | 0.0 | 0.00 | 0.17 | 0.00 | 90 | 1024.3 | |
| 20260506120038 | 43 | 0.0 | 0.0 | 0.00 | 0.17 | 0.00 | 90 | 1024.3 | |
| 20260506114529 | 43 | 0.0 | 0.0 | 0.00 | 0.18 | 0.00 | 90 | 1024.2 | |
| 20260506113035 | 44 | 0.0 | 0.0 | 0.00 | 0.18 | 0.00 | 90 | 1024.3 | |
| 20260506111519 | 44 | 0.0 | 0.0 | 0.00 | 0.18 | 0.00 | 91 | 1024.1 | |
| 20260506110014 | 44 | 0.0 | 0.0 | 0.00 | 0.18 | 0.00 | 89 | 1024.1 | |
| 20260506104510 | 44 | 0.0 | 0.0 | 0.00 | 0.22 | 0.00 | 90 | 1024.1 | |
| 20260506103009 | 44 | 0.0 | 0.0 | 0.00 | 0.22 | 0.00 | 90 | 1023.9 | |
| 20260506101501 | 45 | 0.0 | 0.0 | 0.00 | 0.22 | 0.00 | 90 | 1024.0 | |
| 20260506100058 | 45 | 0.0 | 0.0 | 0.00 | 0.22 | 0.00 | 90 | 1023.9 | |
| 20260506094553 | 45 | 0.0 | 0.0 | 0.00 | 0.28 | 0.00 | 89 | 1023.9 | |
| 20260506093049 | 45 | 0.0 | 0.0 | 0.00 | 0.28 | 0.00 | 89 | 1023.8 | |
| 20260506091552 | 46 | 0.0 | 0.0 | 0.00 | 0.28 | 0.00 | 90 | 1024.0 | |
| 20260506090040 | 46 | 0.0 | 0.0 | 0.00 | 0.28 | 0.00 | 89 | 1024.1 | |
| 20260506084542 | 46 | 0.0 | 0.0 | 0.00 | 0.34 | 0.00 | 89 | 1024.1 | |
| 20260506083031 | 46 | 0.0 | 0.0 | 0.00 | 0.34 | 0.00 | 89 | 1024.5 | |
| 20260506081527 | 47 | 0.0 | 0.0 | 0.00 | 0.34 | 0.00 | 89 | 1024.6 | |
| 20260506073014 | 48 | 0.0 | 0.0 | 0.00 | 0.34 | 0.00 | 88 | 1024.7 | |
| 20260506071511 | 48 | 0.0 | 0.0 | 0.00 | 0.34 | 0.00 | 88 | 1024.8 | |
| 20260506061553 | 49 | 0.0 | 0.0 | 0.00 | 0.34 | 0.34 | 86 | 1024.4 | |
| 20260506044527 | 50 | 0.0 | 0.0 | 0.00 | 0.34 | 0.34 | 83 | 1024.1 | |
| 20260506043022 | 50 | 0.0 | 0.0 | 0.00 | 0.34 | 0.34 | 83 | 1024.0 | |
| 20260506041518 | 51 | 0.0 | 0.0 | 0.00 | 0.34 | 0.34 | 82 | 1023.8 | |
| 20260506040021 | 51 | 0.0 | 0.0 | 0.00 | 0.34 | 0.34 | 81 | 1023.5 | |
| 20260506034518 | 51 | 0.0 | 0.0 | 0.00 | 0.34 | 0.34 | 79 | 1023.3 | |
| 20260506033005 | 52 | 0.0 | 0.0 | 0.00 | 0.34 | 0.34 | 77 | 1023.0 | |
| 20260506031608 | 53 | 0.0 | 0.0 | 0.00 | 0.34 | 0.34 | 76 | 1022.8 | |
| 20260506030055 | 53 | 0.0 | 0.0 | 0.00 | 0.34 | 0.34 | 73 | 1022.6 | |
| 20260506024607 | 54 | 0.0 | 0.0 | 0.00 | 0.34 | 0.34 | 71 | 1022.3 | |
| 20260506023047 | 55 | 0.0 | 0.0 | 0.00 | 0.34 | 0.34 | 70 | 1022.1 | |
| 20260506021544 | 56 | 0.0 | 0.0 | 0.00 | 0.34 | 0.34 | 68 | 1021.8 | |
| 20260506020038 | 56 | 0.0 | 0.0 | 0.00 | 0.34 | 0.34 | 65 | 1021.7 | |
| 20260506014534 | 56 | 0.0 | 0.0 | 0.00 | 0.34 | 0.34 | 65 | 1021.6 | |
| 20260506013039 | 57 | 0.0 | 0.0 | 0.00 | 0.34 | 0.34 | 64 | 1021.6 | |
| 20260506011526 | 58 | 0.0 | 0.0 | 0.00 | 0.34 | 0.34 | 61 | 1021.4 | |
| 20260506010024 | 59 | 0.0 | 0.0 | 0.00 | 0.34 | 0.34 | 59 | 1021.3 | |
| 20260506004516 | 58 | 0.0 | 0.0 | 0.00 | 0.34 | 0.34 | 62 | 1021.3 | |
| 20260506003012 | 59 | 0.0 | 0.0 | 0.00 | 0.34 | 0.34 | 61 | 1021.1 | |
| 20260506001508 | 58 | 0.0 | 0.0 | 0.00 | 0.34 | 0.34 | 63 | 1021.0 | |
| 20260506000003 | 59 | 0.0 | 0.0 | 0.00 | 0.34 | 0.34 | 64 | 1021.1 | |
| 20260505234558 | 59 | 0.0 | 0.0 | 0.00 | 0.34 | 0.34 | 59 | 1021.2 | |
| 20260505233054 | 58 | 0.0 | 0.0 | 0.00 | 0.34 | 0.34 | 61 | 1021.1 | |
| 20260505231550 | 60 | 0.0 | 0.0 | 0.00 | 0.34 | 0.34 | 60 | 1021.1 | |
| 20260505230056 | 59 | 0.0 | 0.0 | 0.00 | 0.34 | 0.34 | 59 | 1021.1 | |
| 20260505224541 | 59 | 0.0 | 0.0 | 0.00 | 0.34 | 0.34 | 60 | 1021.2 | |
| 20260505223047 | 59 | 0.0 | 0.0 | 0.00 | 0.34 | 0.34 | 63 | 1021.3 | |
| 20260505221536 | 59 | 0.0 | 0.0 | 0.00 | 0.34 | 0.34 | 62 | 1021.4 | |
| 20260505220027 | 59 | 0.0 | 0.0 | 0.00 | 0.34 | 0.34 | 62 | 1021.6 | |
| 20260505214525 | 60 | 0.0 | 0.0 | 0.00 | 0.34 | 0.34 | 62 | 1021.6 | |
| 20260505213019 | 59 | 0.0 | 0.0 | 0.00 | 0.34 | 0.34 | 62 | 1021.7 | |
| 20260505211516 | 60 | 0.0 | 0.0 | 0.00 | 0.34 | 0.34 | 63 | 1021.9 | |
| 20260505210010 | 59 | 0.0 | 0.0 | 0.00 | 0.34 | 0.34 | 62 | 1022.0 | |
| 20260505204507 | 57 | 0.0 | 0.0 | 0.00 | 0.34 | 0.34 | 67 | 1022.1 | |
| 20260505203005 | 58 | 0.0 | 0.0 | 0.00 | 0.34 | 0.34 | 70 | 1022.1 | |
| 20260505201501 | 57 | 0.0 | 0.0 | 0.00 | 0.34 | 0.34 | 72 | 1022.1 | |
| 20260505200100 | 56 | 0.0 | 0.0 | 0.00 | 0.34 | 0.34 | 75 | 1022.2 | |
| 20260505194605 | 55 | 0.0 | 0.0 | 0.00 | 0.34 | 0.34 | 78 | 1022.3 | |
| 20260505193049 | 54 | 0.0 | 0.0 | 0.00 | 0.34 | 0.34 | 83 | 1022.4 | |
| 20260505191544 | 55 | 0.0 | 0.0 | 0.00 | 0.34 | 0.34 | 80 | 1022.5 | |
| 20260505190043 | 55 | 0.0 | 0.0 | 0.00 | 0.34 | 0.34 | 83 | 1022.3 | |
| 20260505184535 | 54 | 0.0 | 0.0 | 0.00 | 0.34 | 0.34 | 87 | 1022.3 | |
| 20260505183031 | 52 | 0.0 | 0.0 | 0.00 | 0.34 | 0.34 | 84 | 1022.5 | |
| 20260505181527 | 52 | 0.0 | 0.0 | 0.01 | 0.34 | 0.34 | 85 | 1022.4 | |
| 20260505180022 | 52 | 0.0 | 0.0 | 0.01 | 0.34 | 0.34 | 87 | 1022.2 | |
| 20260505174518 | 53 | 0.0 | 0.0 | 0.01 | 0.34 | 0.34 | 89 | 1022.0 | |
| 20260505173034 | 53 | 0.0 | 0.0 | 0.01 | 0.34 | 0.34 | 91 | 1021.8 | |
| 20260505171509 | 53 | 0.0 | 0.0 | 0.00 | 0.33 | 0.33 | 91 | 1021.7 | |
| 20260505170004 | 53 | 0.0 | 0.0 | 0.00 | 0.33 | 0.33 | 91 | 1021.6 | |
| 20260505164605 | 52 | 0.0 | 0.0 | 0.00 | 0.45 | 0.33 | 92 | 1021.4 | |
| 20260505163101 | 51 | 0.0 | 0.0 | 0.00 | 0.45 | 0.33 | 93 | 1021.4 | |
| 20260505161552 | 51 | 0.0 | 0.0 | 0.03 | 0.45 | 0.33 | 91 | 1021.3 | |
| 20260505153050 | 50 | 0.0 | 0.0 | 0.07 | 0.45 | 0.33 | 92 | 1021.2 | |
| 20260505151542 | 51 | 0.0 | 0.0 | 0.03 | 0.41 | 0.28 | 92 | 1021.0 | |
| 20260505124550 | 51 | 0.0 | 0.0 | 0.05 | 0.34 | 0.22 | 94 | 1019.5 |